Погода в Архангельском

Украина / Херсонская область     47°25′48″N   33°24′23″E
темп.,
°C
ветер,
м/с
пор.,
м/с
влажн.,
%
обл.,
%
осадки,
мм/ч
давл.,
гПа
погр.,
м
17 сентября, пт
пт1700:00+15в22442 0.0 101811
03:00+13вюв11485 0.0 101810
06:00+13юв225588 0.0 101710
09:00+18ю234263 0.0 1017331
12:00+23ююз332891 0.0 10151570
15:00+25ююз4425100 0.0 10141880
18:00+23ю352899 0.0 1013143
21:00+18ююз344259 0.0 101360
18 сентября, сб
сб1800:00+15ю41052100 0.0 1013199
03:00+16ююз41159100 0.0 1012360
06:00+17юв3756100 0.2 1011214
09:00+20ю61048100 0.2 1011808
12:00+17ююв596694 0.8 1010499
15:00+16ююв71389100 5.3 1010853
18:00+16ююв71385100 3.1 1009668
21:00+17ю5108998 6.3 1008578
19 сентября, вс
вс1900:00+16зсз349698 0.5 100980
03:00+15сз34944 0.5 100967
06:00+14с2295100 0.0 101033
09:00+17в1176100 0.0 1010246
12:00+22ю35517 0.0 10091009
15:00+22ююз465311 0.6 10081063
18:00+21з694947 0.0 1008552
21:00+16сз6107063 0.0 1009331
20 сентября, пн
пн2000:00+15ссз3766100 0.0 1010429
03:00+13сз366852 0.0 1011269
06:00+13зсз3661100 0.0 1011357
09:00+13з2359100 0.0 1011330
12:00+13з4662100 0.1 1012551
15:00+17зюз7104581 0.1 10111829
18:00+14зсз695888 0.0 10131133
21:00+11зсз597079 0.0 1015470
21 сентября, вт
вт2100:00+11з48775 0.0 1016295
03:00+9з38825 0.0 1016201
06:00+8з4107910 0.0 1017446
09:00+11зсз695899 0.0 1018782
12:00+15з68445 0.0 10181281
15:00+17з78386 0.0 10171721
18:00+15зсз57415 0.0 10171153
21:00+10ссз495916 0.0 1019396